Terminal Aerodrome Forecast
Issued by NWS Billings, MT

Home | Current Version | Previous Version | Text Only | Print | Product List | Glossary On
Versions: 1 2 3 4 5 6 7 8 9 10 11 12 13 14 15 16 17 18 19 20 21 22 23 24 25 26 27
000
FTUS45 KBYZ 230530
TAFMLS
TAF
KMLS 230530Z 2306/2406 30028G34KT P6SM VCSH BKN080
     FM231000 28020G27KT P6SM BKN080
     FM231800 31026G35KT P6SM OVC060
     FM240100 31009KT P6SM SKC=

USA.gov is the U.S. government's official web portal to all federal, state and local government web resources and services.